Current Version              Previous Version:    01  02  03  04  05  06  07  08  09  10  11  12  13  14  15  16  17  18  19  20  21  22  23  24  25  26  27  28  29  30  
   31  32  33  34  35  36  37  38  39  40  41  42  43  44  45  46  47  48  49  50  51  52  53  54  55  56  57  58  59  60  

[Printable]
270
ASUS44 KLUB 301810
RWRTX
WEST TEXAS WEATHER ROUNDUP
NATIONAL WEATHER SERVICE LUBBOCK TX
1200 PM CST FRI JAN 30 2015

NOTE: "FAIR" INDICATES FEW OR NO CLOUDS BELOW 12,000 FEET WITH NO
SIGNIFICANT WEATHER AND/OR OBSTRUCTIONS TO VISIBILITY.

TXZ004-006>008-010-012-014-016-OKZ002-301900-
TEXAS PANHANDLE/OKLAHOMA PANHANDLE

CITY           SKY/WX    TMP DP  RH WIND       PRES   REMARKS
AMARILLO       CLOUDY    38  27  64 S13       30.40F WCI  30
BORGER         CLOUDY    42  26  53 S13       30.41F
CANADIAN       CLOUDY    45  29  53 S9        30.43F
DALHART        CLOUDY    41  28  60 S14       30.37F
DUMAS          CLOUDY    39  27  63 S13       30.38F WCI  31
GUYMON         CLOUDY    43  28  55 S14       30.37F
HEREFORD       CLOUDY    41  30  65 S9        30.41F
PAMPA          CLOUDY    39  26  60 S10       30.41F WCI  32
PERRYTON         N/A     41  28  58 S14       30.40F
$$

TXZ026-029-035-045-048-301900-
SOUTHERN PANHANDLE/SOUTH PLAINS/ROLLING PLAINS

CITY           SKY/WX    TMP DP  RH WIND       PRES   REMARKS
CHILDRESS      CLOUDY    42  29  59 SE8       30.48F
SEMINOLE       CLOUDY    42  29  60 E9        30.38F
LUBBOCK        CLOUDY    41  27  57 SE14      30.40F
PLAINVIEW      CLOUDY    40  27  61 SE8       30.40F WCI  34
SNYDER         CLOUDY   N/A N/A N/A E9        30.43F
$$

TXZ052-054-060>062-072-078-127-140-154-169-301900-
PERMIAN BASIN/CONCHO VALLEY/BIG COUNTRY/EDWARDS PLATEAU

CITY           SKY/WX    TMP DP  RH WIND       PRES   REMARKS
ABILENE        CLOUDY    45  29  53 E7        30.44F
BIG SPRING     CLOUDY    45  29  53 E8        30.43F
BRADY          MOSUNNY   48  32  53 E7        30.40F
BROWNWOOD      CLOUDY    46  32  57 E8        30.44F
JUNCTION       MOSUNNY   51  32  48 E10       30.39F
MIDLAND        CLOUDY    45  30  55 E16       30.36F
ODESSA         CLOUDY    45  30  55 E13       30.37F
SAN ANGELO     CLOUDY    49  33  54 E13       30.41F
SONORA         CLOUDY    52  32  46 NE5G14    30.42F
SWEETWATER     CLOUDY    44  31  59 NE10      30.46F
WINK           CLOUDY    45  27  49 E8        30.35F
$$

TXZ055-058-074-075-080-082-301900-
FAR WEST/SOUTHWEST MOUNTAINS/TRANS PECOS

CITY           SKY/WX    TMP DP  RH WIND       PRES   REMARKS
ALPINE         CLOUDY    44  32  63 NE9       30.36F
DRYDEN           N/A     52  33  48 E12       30.33F
EL PASO        CLOUDY    45  36  70 E14       30.22F
FORT STOCKTON  CLOUDY    47  33  58 E10       30.33F
GUADALUPE PASS FOG       32  31  96 E36G48    30.25R VSB 3/4 WCI  16
MARFA          CLOUDY    45  34  65 NE13      30.30S
PECOS          CLOUDY    45  33  63 E7        30.36F
PRESIDIO       CLOUDY    55  36  48 NE13G21   30.24F
$$

TXZ014-016-019-021>030-083-301900
TEXAS TECH WEST TEXAS MESONET/TEXAS PANHANDLE/NORTHERN SOUTH PLAINS

CITY           SKY/WX    TMP DP  RH WIND       PRES   REMARKS
ABERNATHY 5ENE   N/A     39  27  61 SE10      30.41F WCI  33
AMARILLO 9NNE    N/A     39  26  60 S14       30.39F WCI  30
AMARILLO 7SSE    N/A     38  28  65 S9        30.40F WCI  32
AMHERST 1NE      N/A     38  27  63 SE10      30.40F WCI  31
BOOTLEG 11WNW    N/A     37  25  62 S9        30.38F WCI  30
CANADIAN 6E      N/A     43  26  51 S8        30.42F
CAPROCK CYN SP   N/A     40  28  60 SE8       30.45F WCI  35
CLARENDON 2WSW   N/A     40  27  60 SE8       30.44F WCI  34
CLAUDE 12SW      N/A     37  26  65 S9        30.40F WCI  31
DIMMITT 2NE      N/A     37  26  66 SE12      30.40F WCI  29
FLOYDADA 2NNE    N/A     39  26  59 E9        30.41F WCI  33
FRIONA 2NE       N/A     38  28  66 SE12      30.39F WCI  30
GOODLETT 3W      N/A     44  28  53 SE7       30.48F
HART 3N          N/A     37  27  67 SE10      30.40F WCI  30
HEREFORD 2NW     N/A     39  26  60 SE9       30.39F WCI  33
MCLEAN 1E        N/A     39  26  60 SE8       30.42F WCI  33
MEMPHIS 1NE      N/A     42  28  58 SE7       30.47F
MULESHOE 2SSW    N/A     39  27  61 SE9       30.39F WCI  33
OLTON 6S         N/A     38  26  61 SE8       30.40F WCI  32
PALO DURO SP     N/A     39  27  62 S7        30.41F WCI  34
PAMPA 2E         N/A     38  27  62 SE12      30.41F WCI  31
PLAINVIEW 1S     N/A     39  27  63 SE9       30.41F WCI  33
SILVERTON 7ESE   N/A     38  26  62 SE12      30.43F WCI  31
TULIA 2ENE       N/A     37  28  71 SE13      30.41F WCI  29
TURKEY 2WSW      N/A     42  28  59 SE7       30.44F
UMBARGER 3NNE    N/A     38  27  64 S10       30.40F WCI  31
$$

TXZ033>036-039>041-045>048-301900
TEXAS TECH WEST TEXAS MESONET/SOUTH PLAINS

CITY           SKY/WX    TMP DP  RH WIND       PRES   REMARKS
AIKEN 3WSW       N/A     39  27  62 E12       30.42F WCI  32
ANDREWS 2NE      N/A     43  29  58 E13       30.37F
ANTON 6SSW       N/A     40  28  61 E10       30.40F WCI  33
BROWNFIELD 2S    N/A     39  27  61 E12       30.39F WCI  32
DENVR CTY 7WNW   N/A     39  26  60 E12       30.36F WCI  31
GAIL 2ESE        N/A     44  29  55 E9        30.41F
LAMESA 2SE       N/A     42  30  61 E10       30.40F
LEVELLAND 4S     N/A     40  25  55 E10       30.39F WCI  33
LUBBOCK 3WNW     N/A     41  27  56 SE9       30.41F
MORTON 1ENE      N/A     38  28  66 E9        30.39F WCI  32
ODONNELL 1N      N/A     41  28  58 E10       30.40F
PLAINS 3N        N/A     39  26  59 E12       30.37F WCI  32
RALLS 1SE        N/A     40  27  59 E12       30.42F WCI  33
REESE CENTER     N/A     40  26  57 E9        30.40F WCI  34
SEAGRAVES 1SW    N/A     41  28  59 E8        30.38F
SEMINOLE 2NNE    N/A     41  27  57 E14       30.37F
SLATON 2NE       N/A     40  28  62 E12       30.41F WCI  32
SNYDER 3E        N/A     44  30  57 E12       30.42F
SUNDOWN 8SW      N/A     39  26  58 E12       30.38F WCI  32
TAHOKA 3NNE      N/A     42  28  55 E10       30.39F
WOLFFORTH 6SSW   N/A     41  28  58 E13       30.40F
$$

TXZ031-032-036>038-042>044-301900-
TEXAS TECH WEST TEXAS MESONET/ROLLING PLAINS

CITY           SKY/WX    TMP DP  RH WIND       PRES   REMARKS
ASPERMONT 3NE    N/A     45  30  55 E8        30.46F
FLUVANNA 3WNW    N/A     42  29  59 E10       30.41F
GRAHAM 5SSW      N/A     41  28  60 E9        30.40F
GUTHRIE 10WSW    N/A     42  29  59 E8        30.45F
HASKELL 1NW      N/A     44  29  55 E8        30.46F
JAYTON 1SSE      N/A     43  30  59 E8        30.45F
KNOX CITY 3NW    N/A     44  29  57 NE6       30.48F
LK A HENRY 1NW   N/A     43  28  55 E10       30.42F
NORTHFIELD 1S    N/A     43  29  56 SE7       30.46F
ODELL 4ENE       N/A     44  29  55 E6        30.49F
PADUCAH 10SW     N/A     41  29  63 E6        30.46F
POST 1NE         N/A     43  28  55 E8        30.42F
RRING SPRGS 3N   N/A     40  29  64 E8        30.44F WCI  34
SEYMOUR 3NW      N/A     44  29  55 NE7       30.48F
SPUR 1W          N/A     41  28  59 E7        30.44F
WEINERT 2NNE     N/A     44  29  55 E7        30.47F
WHITE RVR 6NE    N/A     41  27  57 E9        30.42F
$$

TXZ052-054-060>062-072-078-127-140-154-169-301900-
TEXAS TECH WEST TEXAS MESONET/PERMIAN BASIN/
CONCHO VALLEY/BIG COUNTRY/EDWARDS PLATEAU

CITY           SKY/WX    TMP DP  RH WIND       PRES   REMARKS
COYANOSA 2N      N/A     48  32  53 E6        30.35F
JUNCTION 1SSW    N/A     52  34  49 N8        30.39F
MERTZON 3NNE     N/A     46  32  57 NE6       30.41F
SAN ANGELO 7NW   N/A     47  30  52 E12       30.41F
STRLNG CT 4WSW   N/A     44  30  58 E7        30.41F
ST LAWRNCE 5SW   N/A     44  31  61 E12       30.38F
SWEETWATR 11SW   N/A     45  30  56 NE9       30.42F
WALL 1E          N/A     47  33  57 NE12      30.41F
$$

TXZ055-058-074-075-080-082-301900-
TEXAS TECH WEST TEXAS MESONET/FAR WEST/SOUTHWEST MOUNTAINS/TRANS PECOS

CITY           SKY/WX    TMP DP  RH WIND       PRES   REMARKS
PRSMN GAP BBNP   N/A     50  33  52 NE22      30.29F
$$